Weather History for PHHI - December, 2012

Change the Weather History Date:

Thursday, December 13, 2012

  Actual Average Record
Temperature  
Mean Temperature 70 °F -  
Max Temperature 73 °F 74 °F 82 °F (2002)
Min Temperature 66 °F 63 °F 59 °F (2004)
Cooling Degree Days 4    
Growing Degree Days 20 (Base 50)    
Moisture  
Dew Point 63 °F    
Average Humidity 80    
Maximum Humidity 90    
Minimum Humidity 69    
Precipitation  
Precipitation 0.16 in - - ()
Sea Level Pressure  
Sea Level Pressure 30.10 in    
Wind  
Wind Speed 7 mph (East)    
Max Wind Speed 18 mph    
Max Gust Speed 26 mph    
Visibility 9 miles    
Events Rain    
Averages and records for this station are not official NWS values.
T = Trace of Precipitation, MM = Missing Value Source: NWS Daily Summary

Daily Weather History Graph

Daily Weather History Graph

Search for Another Location

Airport or City:

Trip Planner

Search our weather history database for the weather conditions in past years. The results will help you decide how hot, cold, wet, or windy it might be!

Date:

Astronomy

Dec. 13, 2012 Rise Set
Actual Time 7:01 AM HST 5:51 PM HST
Civil Twilight 6:37 AM HST 6:16 PM HST
Nautical Twilight 6:09 AM HST 6:43 PM HST
Astronomical Twilight 5:42 AM HST 7:11 PM HST
Moon 7:24 AM HST (12/13) 6:43 PM HST (12/13)
Length of Visible Light 11h 38m
Length of Day
10h 50m
New Moon, 0% of the Moon is Illuminated
Dec 13
New Moon
Dec 19
First Quarter
Dec 28
Full
Jan 4
Last Quarter
Jan 11
New

Hourly Weather History & Observations

Time (HST) Temp. Dew Point Humidity Pressure Visibility Wind Dir Wind Speed Gust Speed Precip Events Conditions
12:03 AM 69.8 °F 60.8 °F 73% 30.09 in 10.0 mi East 5.8 mph - N/A   Mostly Cloudy
12:06 AM 69.8 °F 60.8 °F 73% 30.09 in 10.0 mi East 4.6 mph - N/A   Mostly Cloudy
12:10 AM 69.8 °F 62.6 °F 78% 30.10 in 10.0 mi ENE 8.1 mph - N/A   Mostly Cloudy
12:12 AM 69.8 °F 62.6 °F 78% 30.10 in 9.0 mi NE 5.8 mph - N/A Rain Light Rain
12:13 AM 69.8 °F 62.6 °F 78% 30.10 in 9.0 mi ENE 6.9 mph - N/A Rain Light Rain
12:16 AM 69.8 °F 62.6 °F 78% 30.10 in 8.0 mi East 6.9 mph - N/A Rain Light Rain
12:20 AM 69.8 °F 62.6 °F 78% 30.10 in 8.0 mi East 10.4 mph - N/A Rain Light Rain
12:30 AM 68.0 °F 62.6 °F 83% 30.11 in 10.0 mi ESE 9.2 mph - N/A   Partly Cloudy
12:51 AM 69.8 °F 62.6 °F 78% 30.14 in 9.0 mi East 11.5 mph - N/A   Light Drizzle
12:55 AM 69.3 °F 62.4 °F 79% 30.14 in 9.0 mi ENE 16.1 mph 19.6 mph 0.01 in   Light Drizzle
12:57 AM 69.8 °F 62.6 °F 78% 30.15 in 9.0 mi East 12.7 mph 19.6 mph N/A   Light Drizzle
1:05 AM 68.0 °F 62.6 °F 83% 30.15 in 7.0 mi ENE 9.2 mph - N/A Rain Light Rain
1:13 AM 68.0 °F 62.6 °F 83% 30.15 in 7.0 mi Calm Calm - N/A Rain Light Rain
1:16 AM 68.0 °F 62.6 °F 83% 30.15 in 10.0 mi Variable 3.5 mph - N/A   Overcast
1:27 AM 68.0 °F 62.6 °F 83% 30.15 in 10.0 mi Variable 3.5 mph - N/A   Light Drizzle
1:37 AM 68.0 °F 62.6 °F 83% 30.15 in 10.0 mi Variable 4.6 mph - N/A   Overcast
1:44 AM 68.0 °F 62.6 °F 83% 30.11 in 10.0 mi Variable 3.5 mph - N/A   Overcast
1:45 AM 68.0 °F 62.6 °F 83% 30.11 in 10.0 mi Calm Calm - N/A   Overcast
1:55 AM 68.2 °F 61.9 °F 80% 30.11 in 10.0 mi Calm Calm - 0.00 in   Overcast
2:26 AM 68.0 °F 60.8 °F 78% 30.10 in 10.0 mi Calm Calm - N/A   Light Drizzle
2:35 AM 68.0 °F 60.8 °F 78% 30.10 in 10.0 mi Variable 4.6 mph - N/A   Overcast
2:55 AM 69.3 °F 61.3 °F 76% 30.09 in 10.0 mi Calm Calm - 0.00 in   Overcast
2:56 AM 69.8 °F 60.8 °F 73% 30.09 in 10.0 mi West 3.5 mph - N/A   Light Drizzle
3:13 AM 68.0 °F 62.6 °F 83% 30.09 in 10.0 mi WNW 5.8 mph - N/A   Overcast
3:38 AM 68.0 °F 62.6 °F 83% 30.10 in 7.0 mi Variable 5.8 mph - N/A Rain Light Rain
3:52 AM 68.0 °F 62.6 °F 83% 30.10 in 10.0 mi ESE 9.2 mph - N/A   Overcast
3:55 AM 67.3 °F 62.4 °F 84% 30.10 in 10.0 mi East 9.2 mph - 0.02 in   Mostly Cloudy
4:43 AM 68.0 °F 60.8 °F 78% 30.09 in 10.0 mi East 4.6 mph - N/A Rain Light Rain
4:49 AM 68.0 °F 62.6 °F 83% 30.09 in 10.0 mi Calm Calm - N/A   Light Drizzle
4:54 AM 68.0 °F 62.6 °F 83% 30.09 in 10.0 mi Calm Calm - N/A   Overcast
4:55 AM 68.4 °F 61.7 °F 79% 30.09 in 10.0 mi WSW 3.5 mph - 0.00 in   Overcast
5:02 AM 68.0 °F 62.6 °F 83% 30.09 in 8.0 mi Calm Calm - N/A Rain Light Rain
5:07 AM 68.0 °F 62.6 °F 83% 30.09 in 7.0 mi Calm Calm - N/A Rain Light Rain
5:08 AM 68.0 °F 62.6 °F 83% 30.09 in 7.0 mi Calm Calm - N/A Rain Light Rain
5:36 AM 66.2 °F 62.6 °F 88% 30.09 in 4.0 mi Variable 3.5 mph - N/A Rain Light Rain
5:55 AM 66.7 °F 63.7 °F 90% 30.10 in 5.0 mi East 8.1 mph - 0.06 in Rain Light Rain
6:13 AM 66.2 °F 62.6 °F 88% 30.09 in 10.0 mi East 8.1 mph - N/A   Mostly Cloudy
6:18 AM 66.2 °F 62.6 °F 88% 30.09 in 10.0 mi ENE 10.4 mph - N/A   Mostly Cloudy
6:26 AM 66.2 °F 62.6 °F 88% 30.09 in 10.0 mi ENE 8.1 mph - N/A   Mostly Cloudy
6:54 AM 66.2 °F 62.6 °F 88% 30.09 in 10.0 mi Calm Calm - N/A   Overcast
6:55 AM 66.9 °F 62.1 °F 84% 30.09 in 10.0 mi Variable 5.8 mph - 0.00 in   Overcast
7:18 AM 66.2 °F 62.6 °F 88% 30.10 in 10.0 mi Calm Calm - N/A Rain Light Rain
7:28 AM 66.2 °F 62.6 °F 88% 30.10 in 10.0 mi WSW 3.5 mph - N/A   Overcast
7:48 AM 68.0 °F 62.6 °F 83% 30.10 in 10.0 mi Calm Calm - N/A   Drizzle
7:55 AM 68.4 °F 63.1 °F 83% 30.10 in 10.0 mi Variable 4.6 mph - 0.00 in   Light Drizzle
7:59 AM 68.0 °F 62.6 °F 83% 30.11 in 10.0 mi Calm Calm - N/A   Overcast
8:09 AM 69.8 °F 62.6 °F 78% 30.10 in 10.0 mi ESE 10.4 mph - N/A   Mostly Cloudy
8:32 AM 69.8 °F 62.6 °F 78% 30.11 in 10.0 mi East 8.1 mph - N/A   Mostly Cloudy
8:35 AM 69.8 °F 62.6 °F 78% 30.11 in 10.0 mi East 8.1 mph - N/A   Mostly Cloudy
8:36 AM 69.8 °F 62.6 °F 78% 30.11 in 10.0 mi East 9.2 mph - N/A   Overcast
8:41 AM 69.8 °F 62.6 °F 78% 30.11 in 7.0 mi East 16.1 mph 23.0 mph N/A Rain Light Rain
8:42 AM 69.8 °F 62.6 °F 78% 30.11 in 7.0 mi ESE 12.7 mph 23.0 mph N/A   Overcast
8:43 AM 69.8 °F 62.6 °F 78% 30.11 in 6.0 mi East 10.4 mph 23.0 mph N/A Rain Light Rain
8:55 AM 70.0 °F 63.3 °F 79% 30.12 in 10.0 mi East 12.7 mph 19.6 mph 0.01 in Rain Light Rain
8:56 AM 69.8 °F 62.6 °F 78% 30.12 in 10.0 mi East 10.4 mph 19.6 mph N/A   Mostly Cloudy
9:02 AM 69.8 °F 64.4 °F 83% 30.12 in 10.0 mi East 12.7 mph 18.4 mph N/A   Mostly Cloudy
9:03 AM 69.8 °F 64.4 °F 83% 30.12 in 10.0 mi East 12.7 mph 18.4 mph N/A Rain Light Rain
9:17 AM 69.8 °F 64.4 °F 83% 30.13 in 10.0 mi East 11.5 mph 20.7 mph N/A   Mostly Cloudy
9:18 AM 69.8 °F 64.4 °F 83% 30.13 in 10.0 mi East 10.4 mph 20.7 mph N/A   Mostly Cloudy
9:36 AM 71.6 °F 62.6 °F 73% 30.12 in 10.0 mi East 13.8 mph - N/A   Mostly Cloudy
9:39 AM 71.6 °F 62.6 °F 73% 30.12 in 9.0 mi ENE 8.1 mph - N/A   Light Drizzle
9:41 AM 71.6 °F 62.6 °F 73% 30.12 in 8.0 mi East 11.5 mph - N/A   Light Drizzle
9:45 AM 71.6 °F 64.4 °F 78% 30.12 in 8.0 mi East 4.6 mph - N/A   Light Drizzle
9:51 AM 69.8 °F 64.4 °F 83% 30.12 in 10.0 mi Variable 5.8 mph - N/A   Mostly Cloudy
9:55 AM 70.7 °F 64.4 °F 80% 30.12 in 10.0 mi NE 6.9 mph - 0.00 in   Mostly Cloudy
10:00 AM 71.6 °F 64.4 °F 78% 30.12 in 10.0 mi Calm Calm - N/A   Mostly Cloudy
10:05 AM 69.8 °F 64.4 °F 83% 30.13 in 9.0 mi Variable 4.6 mph - N/A Rain Light Rain
10:18 AM 69.8 °F 64.4 °F 83% 30.12 in 10.0 mi East 11.5 mph 21.9 mph N/A   Mostly Cloudy
10:32 AM 69.8 °F 64.4 °F 83% 30.12 in 9.0 mi East 6.9 mph - N/A Rain Light Rain
10:45 AM 69.8 °F 64.4 °F 83% 30.11 in 10.0 mi East 18.4 mph 23.0 mph N/A   Mostly Cloudy
10:55 AM 71.1 °F 63.5 °F 77% 30.11 in 10.0 mi East 10.4 mph 26.5 mph 0.00 in   Mostly Cloudy
10:57 AM 71.6 °F 62.6 °F 73% 30.11 in 10.0 mi East 9.2 mph 20.7 mph N/A   Mostly Cloudy
11:06 AM 71.6 °F 62.6 °F 73% 30.11 in 10.0 mi ESE 10.4 mph 18.4 mph N/A   Mostly Cloudy
11:10 AM 71.6 °F 62.6 °F 73% 30.10 in 10.0 mi SE 9.2 mph - N/A   Overcast
11:25 AM 71.6 °F 62.6 °F 73% 30.11 in 10.0 mi ENE 10.4 mph - N/A Rain Light Rain
11:34 AM 71.6 °F 64.4 °F 78% 30.10 in 10.0 mi East 10.4 mph 19.6 mph N/A   Light Drizzle
11:36 AM 71.6 °F 64.4 °F 78% 30.10 in 10.0 mi East 5.8 mph 19.6 mph N/A   Light Drizzle
11:41 AM 71.6 °F 64.4 °F 78% 30.10 in 10.0 mi ESE 4.6 mph 18.4 mph N/A   Mostly Cloudy
11:43 AM 71.6 °F 64.4 °F 78% 30.10 in 9.0 mi Calm Calm - N/A Rain Light Rain
11:55 AM 71.2 °F 64.4 °F 79% 30.09 in 7.0 mi NNE 6.9 mph 17.3 mph 0.00 in Rain Light Rain
12:09 PM 71.6 °F 64.4 °F 78% 30.09 in 10.0 mi NE 8.1 mph 24.2 mph N/A   Mostly Cloudy
12:16 PM 71.6 °F 64.4 °F 78% 30.09 in 10.0 mi ENE 12.7 mph - N/A   Light Drizzle
12:23 PM 71.6 °F 64.4 °F 78% 30.09 in 10.0 mi ENE 10.4 mph - N/A   Light Drizzle
12:25 PM 71.6 °F 64.4 °F 78% 30.09 in 10.0 mi ENE 8.1 mph - N/A   Light Drizzle
12:26 PM 71.6 °F 64.4 °F 78% 30.09 in 10.0 mi NE 6.9 mph - N/A   Overcast
12:35 PM 71.6 °F 64.4 °F 78% 30.08 in 10.0 mi ESE 10.4 mph 21.9 mph N/A   Light Drizzle
12:41 PM 71.6 °F 64.4 °F 78% 30.08 in 7.0 mi North 5.8 mph 21.9 mph N/A   Light Drizzle
12:48 PM 71.6 °F 64.4 °F 78% 30.07 in 10.0 mi East 12.7 mph 18.4 mph N/A   Mostly Cloudy
12:55 PM 72.0 °F 63.7 °F 75% 30.07 in 10.0 mi East 10.4 mph 18.4 mph 0.00 in   Mostly Cloudy
1:26 PM 73.4 °F 62.6 °F 69% 30.07 in 10.0 mi ENE 10.4 mph - N/A   Light Drizzle
1:28 PM 73.4 °F 64.4 °F 73% 30.07 in 9.0 mi ENE 15.0 mph - N/A   Light Drizzle
1:31 PM 73.4 °F 64.4 °F 73% 30.06 in 7.0 mi East 11.5 mph 19.6 mph N/A   Light Drizzle
1:34 PM 71.6 °F 64.4 °F 78% 30.06 in 7.0 mi East 13.8 mph 19.6 mph N/A   Light Drizzle
1:36 PM 71.6 °F 64.4 °F 78% 30.06 in 7.0 mi East 12.7 mph 19.6 mph N/A Rain Light Rain
1:37 PM 71.6 °F 64.4 °F 78% 30.06 in 6.0 mi ENE 13.8 mph 19.6 mph N/A Rain Light Rain
2:26 PM 69.8 °F 64.4 °F 83% 30.06 in 8.0 mi East 13.8 mph 21.9 mph N/A Rain Light Rain
2:30 PM 69.8 °F 64.4 °F 83% 30.06 in 10.0 mi East 8.1 mph 19.6 mph N/A   Mostly Cloudy
2:35 PM 69.8 °F 64.4 °F 83% 30.06 in 9.0 mi NE 8.1 mph - N/A Rain Light Rain
2:38 PM 69.8 °F 64.4 °F 83% 30.06 in 9.0 mi Variable 6.9 mph - N/A Rain Light Rain
2:39 PM 69.8 °F 64.4 °F 83% 30.06 in 9.0 mi Variable 5.8 mph - N/A Rain Light Rain
2:40 PM 69.8 °F 64.4 °F 83% 30.06 in 8.0 mi NE 5.8 mph - N/A Rain Light Rain
2:42 PM 69.8 °F 64.4 °F 83% 30.06 in 8.0 mi Calm Calm - N/A Rain Light Rain
2:51 PM 71.6 °F 64.4 °F 78% 30.05 in 10.0 mi Variable 6.9 mph - N/A   Mostly Cloudy
2:55 PM 71.4 °F 64.0 °F 77% 30.05 in 10.0 mi ENE 9.2 mph - 0.01 in   Mostly Cloudy
3:02 PM 71.6 °F 64.4 °F 78% 30.05 in 10.0 mi ENE 8.1 mph - N/A Rain Light Rain
3:04 PM 71.6 °F 64.4 °F 78% 30.05 in 10.0 mi ENE 11.5 mph - N/A   Drizzle
3:06 PM 71.6 °F 64.4 °F 78% 30.05 in 10.0 mi ENE 9.2 mph - N/A   Drizzle
3:08 PM 71.6 °F 64.4 °F 78% 30.05 in 9.0 mi East 8.1 mph - N/A   Light Drizzle
3:09 PM 71.6 °F 64.4 °F 78% 30.05 in 8.0 mi East 10.4 mph - N/A Rain Light Rain
3:29 PM 71.6 °F 64.4 °F 78% 30.05 in 6.0 mi ENE 4.6 mph - N/A Rain Light Rain
3:34 PM 71.6 °F 64.4 °F 78% 30.06 in 8.0 mi East 6.9 mph - N/A   Light Drizzle
3:38 PM 71.6 °F 66.2 °F 83% 30.06 in 10.0 mi East 9.2 mph - N/A   Mostly Cloudy
3:39 PM 71.6 °F 66.2 °F 83% 30.06 in 10.0 mi East 8.1 mph - N/A   Scattered Clouds
3:55 PM 72.3 °F 63.9 °F 75% 30.05 in 10.0 mi NE 10.4 mph - 0.01 in   Clear
4:25 PM 71.6 °F 62.6 °F 73% 30.05 in 10.0 mi East 9.2 mph 20.7 mph N/A   Light Drizzle
4:52 PM 71.6 °F 62.6 °F 73% 30.06 in 10.0 mi ENE 5.8 mph - N/A   Mostly Cloudy
4:55 PM 72.1 °F 62.6 °F 72% 30.06 in 10.0 mi ENE 11.5 mph 16.1 mph 0.00 in   Scattered Clouds
5:16 PM 71.6 °F 60.8 °F 69% 30.09 in 10.0 mi East 15.0 mph 21.9 mph N/A   Scattered Clouds
5:55 PM 70.7 °F 60.3 °F 69% 30.09 in 10.0 mi East 12.7 mph - N/A   Partly Cloudy
6:39 PM 71.6 °F 60.8 °F 69% 30.09 in 10.0 mi East 12.7 mph 19.6 mph N/A   Light Drizzle
6:55 PM 69.6 °F 62.1 °F 77% 30.10 in 10.0 mi WNW 4.6 mph - 0.00 in   Light Drizzle
7:02 PM 68.0 °F 62.6 °F 83% 30.11 in 10.0 mi WSW 6.9 mph - N/A   Scattered Clouds
7:55 PM 69.6 °F 61.3 °F 75% 30.12 in 10.0 mi WNW 6.9 mph - 0.00 in   Scattered Clouds
8:47 PM 71.6 °F 62.6 °F 73% 30.12 in 10.0 mi ENE 10.4 mph 18.4 mph N/A   Light Drizzle
8:55 PM 70.7 °F 62.1 °F 74% 30.12 in 10.0 mi East 10.4 mph - 0.00 in   Light Drizzle
8:57 PM 71.6 °F 62.6 °F 73% 30.12 in 10.0 mi East 11.5 mph - N/A   Mostly Cloudy
9:14 PM 71.6 °F 62.6 °F 73% 30.12 in 10.0 mi NE 6.9 mph - N/A   Light Drizzle
9:30 PM 69.8 °F 62.6 °F 78% 30.13 in 7.0 mi ENE 4.6 mph 18.4 mph N/A Rain Rain
9:52 PM 68.0 °F 62.6 °F 83% 30.14 in 8.0 mi Calm Calm - N/A Rain Light Rain
9:54 PM 68.0 °F 62.6 °F 83% 30.14 in 9.0 mi Calm Calm - N/A Rain Light Rain
9:55 PM 68.9 °F 63.3 °F 82% 30.14 in 9.0 mi Calm Calm - 0.01 in Rain Light Rain
10:13 PM 68.0 °F 62.6 °F 83% 30.14 in 10.0 mi Variable 4.6 mph - N/A   Scattered Clouds
10:27 PM 68.0 °F 62.6 °F 83% 30.13 in 10.0 mi Variable 3.5 mph - N/A   Light Drizzle
10:28 PM 68.0 °F 62.6 °F 83% 30.14 in 10.0 mi Variable 3.5 mph - N/A   Light Drizzle
10:41 PM 68.0 °F 64.4 °F 88% 30.14 in 5.0 mi ENE 9.2 mph - N/A Rain Light Rain
10:42 PM 68.0 °F 64.4 °F 88% 30.14 in 5.0 mi ENE 10.4 mph - N/A Rain Rain
10:46 PM 68.0 °F 64.4 °F 88% 30.14 in 6.0 mi Variable 6.9 mph - N/A Rain Light Rain
10:49 PM 68.0 °F 64.4 °F 88% 30.14 in 9.0 mi Variable 5.8 mph - N/A   Light Drizzle
10:54 PM 68.0 °F 64.4 °F 88% 30.14 in 10.0 mi Variable 3.5 mph - N/A   Light Drizzle
10:55 PM 68.2 °F 63.9 °F 86% 30.14 in 10.0 mi Variable 4.6 mph - 0.01 in   Light Drizzle
11:07 PM 68.0 °F 64.4 °F 88% 30.14 in 10.0 mi SSW 4.6 mph - N/A   Light Drizzle
11:10 PM 68.0 °F 64.4 °F 88% 30.13 in 10.0 mi SSW 4.6 mph - N/A   Light Drizzle
11:17 PM 68.0 °F 64.4 °F 88% 30.13 in 10.0 mi WSW 3.5 mph - N/A   Light Drizzle
11:34 PM 68.0 °F 64.4 °F 88% 30.14 in 6.0 mi Calm Calm - N/A Rain Light Rain
11:48 PM 68.0 °F 64.4 °F 88% 30.13 in 10.0 mi WSW 4.6 mph - N/A   Light Drizzle
11:51 PM 68.0 °F 64.4 °F 88% 30.12 in 10.0 mi WSW 5.8 mph - N/A   Light Drizzle
11:55 PM 67.5 °F 64.4 °F 90% 30.12 in 10.0 mi WNW 3.5 mph - 0.02 in   Light Drizzle
11:57 PM 68.0 °F 64.4 °F 88% 30.12 in 10.0 mi NW 5.8 mph - N/A   Mostly Cloudy